Kenai, AK

2:13 PM AKDT on April 21, 2018 (GMT -0800)
Kenai Municipal

Weather History for PAEN - November, 2012

Change the Weather History Date:

Monday, November 12, 2012

  Actual Average Record
Temperature  
Mean Temperature 26 °F -  
Max Temperature 36 °F 30 °F 48 °F (1967)
Min Temperature 15 °F 16 °F -12 °F (1973)
Degree Days  
Heating Degree Days 40    
Moisture  
Dew Point 20 °F    
Average Humidity 93    
Maximum Humidity 100    
Minimum Humidity 79    
Precipitation  
Precipitation 0.00 in - - ()
Sea Level Pressure  
Sea Level Pressure 29.97 in    
Wind  
Wind Speed 1 mph (NE)    
Max Wind Speed 5 mph    
Max Gust Speed -    
Visibility 6 miles    
Events Fog    
Averages and records for this station are not official NWS values.
T = Trace of Precipitation, MM = Missing Value Source: NWS Daily Summary

Daily Weather History Graph

Daily Weather History Graph

Search for Another Location

Airport or City:

Astronomy

Nov. 12, 2012 Rise Set
Actual Time 9:00 AM AKST 4:36 PM AKST
Civil Twilight 8:11 AM AKST 5:26 PM AKST
Nautical Twilight 7:18 AM AKST 6:18 PM AKST
Astronomical Twilight 6:29 AM AKST 7:08 PM AKST
Moon 7:27 AM AKST (11/12) 3:55 PM AKST (11/12)
Length of Visible Light 9h 15m
Length of Day
7h 36m
Waning Crescent, 2% of the Moon is Illuminated
Nov 12
Waning Crescent
Nov 13
New
Nov 20
First Quarter
Nov 28
Full
Dec 6
Last Quarter

Hourly Weather History & Observations

Time (AKST) Temp. Windchill Dew Point Humidity Pressure Visibility Wind Dir Wind Speed Gust Speed Precip Events Conditions
12:53 AM 25.0 °F - 23.0 °F 92% 29.83 in 10.0 mi Calm Calm - N/A   Clear
1:53 AM 25.0 °F - 23.0 °F 92% 29.84 in 10.0 mi Calm Calm - N/A   Clear
3:53 AM 25.0 °F - 23.0 °F 92% 29.85 in 10.0 mi Calm Calm - N/A   Scattered Clouds
4:53 AM 24.1 °F - 21.9 °F 91% 29.86 in 10.0 mi Calm Calm - N/A   Mostly Cloudy
5:53 AM 21.9 °F - 21.0 °F 96% 29.87 in 10.0 mi Calm Calm - N/A   Partly Cloudy
6:11 AM 21.2 °F 16.4 °F 19.4 °F 93% 29.86 in 1.8 mi NE 3.5 mph - N/A   Mostly Cloudy
6:21 AM 19.4 °F - 19.4 °F 100% 29.87 in 3.0 mi Calm Calm - N/A   Partly Cloudy
6:53 AM 19.9 °F - 19.0 °F 96% 29.88 in 6.0 mi Calm Calm - N/A   Mostly Cloudy
6:59 AM 19.4 °F - 19.4 °F 100% 29.87 in 10.0 mi Calm Calm - N/A   Mostly Cloudy
7:53 AM 19.9 °F - 19.0 °F 96% 29.89 in 10.0 mi Calm Calm - N/A   Overcast
8:53 AM 21.0 °F - 19.9 °F 96% 29.92 in 10.0 mi Calm Calm - N/A   Overcast
9:53 AM 21.9 °F - 19.9 °F 92% 29.94 in 10.0 mi Calm Calm - N/A   Overcast
10:53 AM 25.0 °F 20.7 °F 23.0 °F 92% 29.95 in 10.0 mi NNE 3.5 mph - N/A   Mostly Cloudy
11:53 AM 30.9 °F 27.5 °F 28.0 °F 89% 29.96 in 10.0 mi NE 3.5 mph - N/A   Overcast
12:53 PM 33.1 °F - 30.9 °F 92% 29.97 in 10.0 mi Calm Calm - N/A   Overcast
1:53 PM 36.0 °F 33.3 °F 30.0 °F 79% 29.98 in 10.0 mi NNE 3.5 mph - N/A   Clear
2:53 PM 36.0 °F 33.3 °F 30.0 °F 79% 29.99 in 10.0 mi NNE 3.5 mph - N/A   Clear
3:53 PM 33.1 °F 28.7 °F 28.0 °F 82% 29.99 in 10.0 mi North 4.6 mph - N/A   Clear
4:53 PM 28.0 °F 24.2 °F 27.0 °F 96% 30.01 in 10.0 mi NE 3.5 mph - N/A   Clear
5:53 PM 24.1 °F - 23.0 °F 96% 30.02 in 10.0 mi Calm Calm - N/A   Clear
6:53 PM 21.9 °F - 21.0 °F 96% 30.03 in 10.0 mi Calm Calm - N/A Fog Shallow Fog
7:53 PM 19.0 °F - 17.1 °F 92% 30.05 in 5.0 mi Calm Calm - N/A Fog Shallow Fog
7:58 PM 19.4 °F - 17.6 °F 93% 30.04 in 0.5 mi Calm Calm - N/A Fog Light Freezing Fog
8:53 PM 16.0 °F 10.4 °F 15.1 °F 96% 30.04 in 0.5 mi NE 3.5 mph - N/A Fog Light Freezing Fog
9:32 PM 15.8 °F - 14.0 °F 93% 30.03 in 0.2 mi Calm Calm - N/A Fog Light Freezing Fog
9:42 PM 17.6 °F - 15.8 °F 93% 30.03 in 0.5 mi Calm Calm - N/A Fog Light Freezing Fog
9:53 PM 17.1 °F 11.7 °F 15.1 °F 92% 30.05 in 0.5 mi NNE 3.5 mph - N/A Fog Light Freezing Fog
10:01 PM 15.8 °F - 15.8 °F 100% 30.04 in 0.2 mi Calm Calm - N/A Fog Light Freezing Fog
10:27 PM 15.8 °F - 15.8 °F 100% 30.05 in 0.5 mi Calm Calm - N/A Fog Light Freezing Fog
10:38 PM 15.8 °F - 12.2 °F 86% 30.05 in 0.2 mi Calm Calm - N/A Fog Light Freezing Fog
10:45 PM 15.8 °F - 14.0 °F 93% 30.05 in 1.0 mi Calm Calm - N/A   Mist
10:53 PM 16.0 °F - 14.0 °F 92% 30.07 in 0.8 mi Calm Calm - N/A   Mist
11:19 PM 15.8 °F - 14.0 °F 93% 30.05 in 0.2 mi Calm Calm - N/A Fog Light Freezing Fog
11:49 PM 15.8 °F 8.6 °F 14.0 °F 93% 30.06 in 0.5 mi ENE 4.6 mph - N/A Fog Light Freezing Fog
11:53 PM 16.0 °F 8.8 °F 14.0 °F 92% 30.07 in 0.8 mi ENE 4.6 mph - N/A   Mist